User: anonymous   Login
Location: La Fredeussais
(48.1780°N, 1.3980°W)
Time: 02:30:23
(UTC+00:00)
Language:

UNISAT 6 - Orbit

View from above orbital plane
View from above orbital plane
View from above satellite
View from above satellite

Ground track
Ground track

The orbit data is extracted from the following two-line orbital elements,

1 40012U 14033C   21289.10111122  .00000483  00000-0  78311-4 0  9998
2 40012  97.6679 125.1460 0056878 229.2392 130.3873 14.74400658393970
Epoch (UTC): 16 October 2021 02:25:36
Eccentricity: 0.0056878
inclination: 97.6679°
perigee height: 607 km
apogee height: 687 km
right ascension of ascending node: 125.1460°
argument of perigee: 229.2392°
revolutions per day: 14.74400658
mean anomaly at epoch: 130.3873°
orbit number at epoch: 39397

The dashed part of the orbit path shows where the satellite is in the earth's shadow,  

DLR